HUF56S LHKE-EGUL

Flight info

Callsign HUF56S
Flight time N/A
Altitude 38000
Route ERGUZ DCT XOMBA DCT TOVKA DCT DITIS DCT RAPET T843 DEMAB L604 RELBI L602 FLEVO L980 IDRID
Aircraft A20N/M-SDE2E3FGHIRWXY/LB1

Departure

Time 2026-04-27 08:59
Airport Kecskemét Air Base (LHKE)

Arrival

Time N/A
Airport RAF Lakenheath (EGUL)
Time Latitude Longitude Altitude Speed Heading
2026-04-27 08:50 46.91771 19.73949 386 ft 0 kts 182°
2026-04-27 08:56 46.91756 19.73943 386 ft 6 kts 212°
2026-04-27 08:57 46.91885 19.73707 386 ft 23 kts 311°
2026-04-27 08:57 46.91997 19.73522 387 ft 25 kts 312°
2026-04-27 08:57 46.92119 19.73343 387 ft 16 kts 342°
2026-04-27 08:58 46.92217 19.73425 387 ft 19 kts 35°
2026-04-27 08:58 46.92341 19.73544 389 ft 16 kts 50°
2026-04-27 08:58 46.92322 19.73623 389 ft 22 kts 123°
2026-04-27 08:58 46.92065 19.74199 387 ft 109 kts 123°
2026-04-27 08:59 46.91535 19.75400 545 ft 155 kts 122°
2026-04-27 08:59 46.90954 19.76697 1511 ft 158 kts 121°
2026-04-27 08:59 46.90295 19.78163 2026 ft 194 kts 122°
2026-04-27 08:59 46.89488 19.79995 2516 ft 227 kts 122°
2026-04-27 09:00 46.88622 19.81978 3378 ft 235 kts 123°
2026-04-27 09:00 46.87726 19.84022 4313 ft 242 kts 122°
2026-04-27 09:00 46.86799 19.86113 5349 ft 248 kts 122°
2026-04-27 09:00 46.85842 19.88288 6427 ft 258 kts 122°
2026-04-27 09:01 46.84853 19.90523 7407 ft 266 kts 122°
2026-04-27 09:01 46.84011 19.92952 8335 ft 273 kts 102°
2026-04-27 09:01 46.83938 19.95718 9263 ft 275 kts 74°
2026-04-27 09:01 46.84715 19.98235 10109 ft 272 kts 45°
2026-04-27 09:02 46.86161 19.99915 10900 ft 264 kts 17°
2026-04-27 09:02 46.87923 20.00379 11745 ft 257 kts 349°
2026-04-27 09:02 46.89607 19.99630 12146 ft 261 kts 326°
2026-04-27 09:02 46.91006 19.97960 12125 ft 259 kts 315°
2026-04-27 09:03 46.92313 19.96193 12043 ft 251 kts 315°
2026-04-27 09:03 46.93649 19.94459 11961 ft 271 kts 317°
2026-04-27 09:03 46.95158 19.92595 12286 ft 296 kts 318°
2026-04-27 09:03 46.96816 19.90610 12590 ft 319 kts 319°
2026-04-27 09:04 46.98579 19.88543 13304 ft 327 kts 319°
2026-04-27 09:04 47.00374 19.86455 14182 ft 332 kts 320°
2026-04-27 09:04 47.02195 19.84339 14954 ft 335 kts 320°
2026-04-27 09:04 47.03979 19.82126 15753 ft 337 kts 314°
2026-04-27 09:05 47.05554 19.79572 16522 ft 340 kts 307°
2026-04-27 09:05 47.06888 19.76690 17276 ft 342 kts 300°
2026-04-27 09:05 47.08121 19.73685 18019 ft 346 kts 300°
2026-04-27 09:05 47.09381 19.70647 18742 ft 350 kts 301°
2026-04-27 09:06 47.10657 19.67588 19380 ft 353 kts 301°
2026-04-27 09:06 47.11927 19.64537 19997 ft 357 kts 301°
2026-04-27 09:06 47.13225 19.61410 20614 ft 360 kts 301°
2026-04-27 09:06 47.14534 19.58249 21225 ft 363 kts 301°
2026-04-27 09:07 47.15852 19.55059 21811 ft 367 kts 301°
2026-04-27 09:07 47.17183 19.51835 22396 ft 371 kts 301°
2026-04-27 09:07 47.18530 19.48568 22975 ft 375 kts 301°
2026-04-27 09:07 47.19889 19.45267 23570 ft 379 kts 301°
2026-04-27 09:08 47.21263 19.41926 24094 ft 383 kts 301°
2026-04-27 09:08 47.22644 19.38564 24606 ft 385 kts 301°
2026-04-27 09:08 47.24037 19.35171 25096 ft 388 kts 301°
2026-04-27 09:08 47.25435 19.31758 25591 ft 391 kts 301°
2026-04-27 09:09 47.26845 19.28315 26063 ft 394 kts 301°
2026-04-27 09:09 47.28263 19.24845 26529 ft 396 kts 301°
2026-04-27 09:09 47.29685 19.21360 27004 ft 399 kts 301°
2026-04-27 09:09 47.31123 19.17833 27452 ft 401 kts 301°
2026-04-27 09:10 47.32547 19.14338 27880 ft 404 kts 301°
2026-04-27 09:10 47.33994 19.10779 28310 ft 406 kts 301°
2026-04-27 09:10 47.35450 19.07193 28724 ft 408 kts 301°
2026-04-27 09:10 47.36912 19.03588 29123 ft 411 kts 301°
2026-04-27 09:11 47.38381 18.99959 29518 ft 413 kts 301°
2026-04-27 09:11 47.39856 18.96312 29889 ft 415 kts 301°
2026-04-27 09:11 47.41338 18.92643 30269 ft 417 kts 301°
2026-04-27 09:11 47.42826 18.88952 30599 ft 419 kts 301°
2026-04-27 09:12 47.44323 18.85237 30934 ft 421 kts 301°
2026-04-27 09:12 47.45821 18.81512 31269 ft 423 kts 301°
2026-04-27 09:12 47.47325 18.77765 31610 ft 424 kts 301°
2026-04-27 09:12 47.48828 18.74018 32041 ft 423 kts 301°
2026-04-27 09:13 47.50328 18.70272 32481 ft 422 kts 301°
2026-04-27 09:13 47.51801 18.66588 32890 ft 421 kts 301°
2026-04-27 09:13 47.53291 18.62859 33294 ft 420 kts 301°
2026-04-27 09:13 47.54774 18.59140 33682 ft 420 kts 301°
2026-04-27 09:14 47.56258 18.55414 34068 ft 419 kts 301°
2026-04-27 09:14 47.57732 18.51707 34432 ft 418 kts 301°
2026-04-27 09:14 47.59210 18.47986 34724 ft 418 kts 301°
2026-04-27 09:14 47.60682 18.44273 35015 ft 417 kts 301°
2026-04-27 09:15 47.62152 18.40561 35281 ft 417 kts 301°
2026-04-27 09:15 47.63620 18.36851 35564 ft 417 kts 301°
2026-04-27 09:15 47.65088 18.33134 35850 ft 417 kts 301°
2026-04-27 09:15 47.66550 18.29429 36122 ft 417 kts 301°
2026-04-27 09:16 47.68010 18.25721 36362 ft 416 kts 301°
2026-04-27 09:16 47.69471 18.22006 36612 ft 416 kts 301°
2026-04-27 09:16 47.70930 18.18292 36863 ft 416 kts 301°
2026-04-27 09:16 47.72367 18.14627 37090 ft 416 kts 301°
2026-04-27 09:17 47.73821 18.10916 37321 ft 415 kts 301°
2026-04-27 09:17 47.75273 18.07209 37548 ft 415 kts 301°
2026-04-27 09:17 47.76834 18.03604 37766 ft 414 kts 305°
2026-04-27 09:17 47.78466 18.00073 37966 ft 414 kts 305°
2026-04-27 09:18 47.80100 17.96546 38166 ft 414 kts 305°
2026-04-27 09:18 47.81732 17.93016 38285 ft 415 kts 305°
2026-04-27 09:18 47.83363 17.89473 38284 ft 414 kts 305°
2026-04-27 09:19 47.86604 17.82407 38280 ft 413 kts 305°
2026-04-27 09:19 47.89843 17.75319 38280 ft 413 kts 305°
2026-04-27 09:20 47.93080 17.68218 38278 ft 414 kts 305°
2026-04-27 09:20 47.96289 17.61163 38278 ft 414 kts 305°
2026-04-27 09:21 47.99547 17.53979 38280 ft 422 kts 305°
2026-04-27 09:21 48.02862 17.46653 38285 ft 430 kts 305°
2026-04-27 09:22 48.06230 17.39186 38289 ft 435 kts 304°
2026-04-27 09:22 48.09605 17.31684 38290 ft 435 kts 304°
2026-04-27 09:23 48.12976 17.24170 38291 ft 434 kts 304°
2026-04-27 09:23 48.16344 17.16641 38291 ft 434 kts 304°
2026-04-27 09:24 48.19699 17.09120 38292 ft 434 kts 304°
2026-04-27 09:24 48.23049 17.01590 38289 ft 434 kts 304°
2026-04-27 09:25 48.26372 16.94099 38276 ft 434 kts 304°
2026-04-27 09:25 48.29315 16.86183 38271 ft 434 kts 300°
2026-04-27 09:26 48.32179 16.78200 38256 ft 434 kts 300°
2026-04-27 09:26 48.35035 16.70219 38258 ft 434 kts 300°
2026-04-27 09:27 48.37880 16.62224 38257 ft 433 kts 300°
2026-04-27 09:27 48.40630 16.54464 38250 ft 433 kts 299°